Location: *
(49.3500°N, 12.6000°E)
Time: 18:01:30
(UTC+00:00)

STARLINK-51 - Pass Details

Date: 18 October 2019
Orbit: 549 x 551 km, 53.0° (Epoch: 17 November)

Event Time Altitude Azimuth Distance (km) Brightness Sun altitude
Rises 17:02:21 0° 253° (WSW) 2,712 9.2 -8.6°
Reaches altitude 10° 17:04:35 10° 256° (WSW) 1,820 7.9 -8.9°
Maximum altitude 17:08:43 72° 341° (NNW) 581 3.8 -9.6°
Enters shadow 17:12:27 13° 66° (ENE) 1,667 5.5 -10.2°
